CZ-4C R/B (44820 NORAD) Tracking and Keplerian Element Data

This shows tracking and keplerian element data for the satellite.

Feedback or suggestion? Click here.




ElementValue
Catalog44820
NameCZ-4C R/B
Epoch Orbit428
Epoch Day360.21575884
Epoch Year2019
RAAN21.126
Inclination97.8874
Eccentricity0.0125741
Argument of Perigee306.7586
Mean Anonmoly52.2149
Mean Motion15.19942643
Decay Rate9.59E-06
L11 44820U 19082B 19360.21575884 .00000959 00000-0 39740-4 0 9997
L22 44820 97.8874 21.1260 0125741 306.7586 52.2149 15.19942643 4281

Live tracking and technical data element details for CZ-4C R/B (NORAD 44820). CZ-4C R/B can be tracked NOW for your location showing map with azimuth and elevation plus other details from your city location.

Track the satellite on the map from your city or location and see movement details for azimuth, elevation, latitude, longitude, range, height, and movement on the map or in text.







IsCatalogInMostPopularTable: catalog: 44820, numindb: 7
Update: records affected: 1



GetName: 44820 CZ-4C R/B

Hit Count: updated at: Sat, 18 Jan 2020 17:22:42 GMT